Year,Month,Day,Hour,Minute,Value (Times are PST for temperature in C)
2015,02,23,00,00,3.60
2015,02,23,00,01,3.60
2015,02,23,00,02,3.60
2015,02,23,00,03,3.70
2015,02,23,00,04,3.70
2015,02,23,00,05,3.70
2015,02,23,00,06,3.70
2015,02,23,00,07,3.70
2015,02,23,00,08,3.70
2015,02,23,00,09,3.70
2015,02,23,00,10,3.70
2015,02,23,00,11,3.70
2015,02,23,00,12,3.70
2015,02,23,00,13,3.70
2015,02,23,00,14,3.80
2015,02,23,00,15,3.70
2015,02,23,00,16,3.70
2015,02,23,00,17,3.70
2015,02,23,00,18,3.70
2015,02,23,00,19,3.70
2015,02,23,00,20,3.70
2015,02,23,00,21,3.70
2015,02,23,00,22,3.70
2015,02,23,00,23,3.70
2015,02,23,00,24,3.70
2015,02,23,00,25,3.60
2015,02,23,00,26,3.60
2015,02,23,00,27,3.60
2015,02,23,00,28,3.60
2015,02,23,00,29,3.60
2015,02,23,00,30,3.60
2015,02,23,00,31,3.60
2015,02,23,00,32,3.60
2015,02,23,00,33,3.60
2015,02,23,00,34,3.50
2015,02,23,00,35,3.50
2015,02,23,00,36,3.50
2015,02,23,00,37,3.50
2015,02,23,00,38,3.50
2015,02,23,00,39,3.50
2015,02,23,00,40,3.50
2015,02,23,00,41,3.50
2015,02,23,00,42,3.50
2015,02,23,00,43,3.50
2015,02,23,00,44,3.40
2015,02,23,00,45,3.40
2015,02,23,00,46,3.40
2015,02,23,00,47,3.40
2015,02,23,00,48,3.40
2015,02,23,00,49,3.40
2015,02,23,00,50,3.40
2015,02,23,00,51,3.40
2015,02,23,00,52,3.40
2015,02,23,00,53,3.40
2015,02,23,00,54,3.40
2015,02,23,00,55,3.40
2015,02,23,00,56,3.40
2015,02,23,00,57,3.30
2015,02,23,00,58,3.30
2015,02,23,00,59,3.30
2015,02,23,01,00,3.30
2015,02,23,01,01,3.30
2015,02,23,01,02,3.30
2015,02,23,01,03,3.30
2015,02,23,01,04,3.30
2015,02,23,01,05,3.20
2015,02,23,01,06,3.20
2015,02,23,01,07,3.20
2015,02,23,01,08,3.20
2015,02,23,01,09,3.20
2015,02,23,01,10,3.10
2015,02,23,01,11,3.10
2015,02,23,01,12,3.10
2015,02,23,01,13,3.00
2015,02,23,01,14,3.00
2015,02,23,01,15,2.90
2015,02,23,01,16,2.90
2015,02,23,01,17,2.90
2015,02,23,01,18,2.90
2015,02,23,01,19,2.80
2015,02,23,01,20,2.80
2015,02,23,01,21,2.80
2015,02,23,01,22,2.80
2015,02,23,01,23,2.80
2015,02,23,01,24,2.80
2015,02,23,01,25,2.70
2015,02,23,01,26,2.70
2015,02,23,01,27,2.70
2015,02,23,01,28,2.70
2015,02,23,01,29,2.70
2015,02,23,01,30,2.70
2015,02,23,01,31,2.70
2015,02,23,01,32,2.70
2015,02,23,01,33,2.70
2015,02,23,01,34,2.70
2015,02,23,01,35,2.70
2015,02,23,01,36,2.70
2015,02,23,01,37,2.70
2015,02,23,01,38,2.70
2015,02,23,01,39,2.70
2015,02,23,01,40,2.70
2015,02,23,01,41,2.70
2015,02,23,01,42,2.80
2015,02,23,01,43,2.80
2015,02,23,01,44,2.80
2015,02,23,01,45,2.90
2015,02,23,01,46,2.90
2015,02,23,01,47,2.90
2015,02,23,01,48,2.90
2015,02,23,01,49,3.00
2015,02,23,01,50,3.00
2015,02,23,01,51,3.00
2015,02,23,01,52,3.10
2015,02,23,01,53,3.10
2015,02,23,01,54,3.10
2015,02,23,01,55,3.10
2015,02,23,01,56,3.10
2015,02,23,01,57,3.10
2015,02,23,01,58,3.20
2015,02,23,01,59,3.20
2015,02,23,02,00,3.20
2015,02,23,02,01,3.20
2015,02,23,02,02,3.20
2015,02,23,02,03,3.20
2015,02,23,02,04,3.20
2015,02,23,02,05,3.20
2015,02,23,02,06,3.20
2015,02,23,02,07,3.20
2015,02,23,02,08,3.20
2015,02,23,02,09,3.20
2015,02,23,02,10,3.20
2015,02,23,02,11,3.20
2015,02,23,02,12,3.20
2015,02,23,02,13,3.20
2015,02,23,02,14,3.20
2015,02,23,02,15,3.10
2015,02,23,02,16,3.10
2015,02,23,02,17,3.10
2015,02,23,02,18,3.10
2015,02,23,02,19,3.10
2015,02,23,02,20,3.10
2015,02,23,02,21,3.10
2015,02,23,02,22,3.10
2015,02,23,02,23,3.00
2015,02,23,02,24,3.00
2015,02,23,02,25,3.00
2015,02,23,02,26,3.00
2015,02,23,02,27,2.90
2015,02,23,02,28,2.90
2015,02,23,02,29,2.90
2015,02,23,02,30,2.90
2015,02,23,02,31,2.90
2015,02,23,02,32,2.80
2015,02,23,02,33,2.80
2015,02,23,02,34,2.80
2015,02,23,02,35,2.80
2015,02,23,02,36,2.80
2015,02,23,02,37,2.70
2015,02,23,02,38,2.70
2015,02,23,02,39,2.70
2015,02,23,02,40,2.70
2015,02,23,02,41,2.70
2015,02,23,02,42,2.60
2015,02,23,02,43,2.60
2015,02,23,02,44,2.60
2015,02,23,02,45,2.60
2015,02,23,02,46,2.60
2015,02,23,02,47,2.50
2015,02,23,02,48,2.50
2015,02,23,02,49,2.50
2015,02,23,02,50,2.40
2015,02,23,02,51,2.40
2015,02,23,02,52,2.40
2015,02,23,02,53,2.40
2015,02,23,02,54,2.40
2015,02,23,02,55,2.40
2015,02,23,02,56,2.40
2015,02,23,02,57,2.40
2015,02,23,02,58,2.40
2015,02,23,02,59,2.40
2015,02,23,03,00,2.40
2015,02,23,03,01,2.40
2015,02,23,03,02,2.40
2015,02,23,03,03,2.40
2015,02,23,03,04,2.40
2015,02,23,03,05,2.40
2015,02,23,03,06,2.40
2015,02,23,03,07,2.40
2015,02,23,03,08,2.40
2015,02,23,03,09,2.40
2015,02,23,03,10,2.40
2015,02,23,03,11,2.40
2015,02,23,03,12,2.40
2015,02,23,03,13,2.40
2015,02,23,03,14,2.50
2015,02,23,03,15,2.50
2015,02,23,03,16,2.50
2015,02,23,03,17,2.40
2015,02,23,03,18,2.40
2015,02,23,03,19,2.40
2015,02,23,03,20,2.40
2015,02,23,03,21,2.40
2015,02,23,03,22,2.40
2015,02,23,03,23,2.40
2015,02,23,03,24,2.40
2015,02,23,03,25,2.40
2015,02,23,03,26,2.40
2015,02,23,03,27,2.30
2015,02,23,03,28,2.30
2015,02,23,03,29,2.30
2015,02,23,03,30,2.30
2015,02,23,03,31,2.30
2015,02,23,03,32,2.30
2015,02,23,03,33,2.30
2015,02,23,03,34,2.30
2015,02,23,03,35,2.30
2015,02,23,03,36,2.30
2015,02,23,03,37,2.30
2015,02,23,03,38,2.30
2015,02,23,03,39,2.30
2015,02,23,03,40,2.30
2015,02,23,03,41,2.30
2015,02,23,03,42,2.30
2015,02,23,03,43,2.40
2015,02,23,03,44,2.40
2015,02,23,03,45,2.40
2015,02,23,03,46,2.40
2015,02,23,03,47,2.50
2015,02,23,03,48,2.50
2015,02,23,03,49,2.60
2015,02,23,03,50,2.60
2015,02,23,03,51,2.60
2015,02,23,03,52,2.70
2015,02,23,03,53,2.70
2015,02,23,03,54,2.70
2015,02,23,03,55,2.80
2015,02,23,03,56,2.80
2015,02,23,03,57,2.80
2015,02,23,03,58,2.80
2015,02,23,03,59,2.80
2015,02,23,04,00,2.80
2015,02,23,04,01,2.80
2015,02,23,04,02,2.80
2015,02,23,04,03,2.80
2015,02,23,04,04,2.80
2015,02,23,04,05,2.80
2015,02,23,04,06,2.80
2015,02,23,04,07,2.80
2015,02,23,04,08,2.70
2015,02,23,04,09,2.70
2015,02,23,04,10,2.70
2015,02,23,04,11,2.70
2015,02,23,04,12,2.70
2015,02,23,04,13,2.70
2015,02,23,04,14,2.70
2015,02,23,04,15,2.60
2015,02,23,04,16,2.60
2015,02,23,04,17,2.60
2015,02,23,04,18,2.60
2015,02,23,04,19,2.60
2015,02,23,04,20,2.60
2015,02,23,04,21,2.50
2015,02,23,04,22,2.50
2015,02,23,04,23,2.50
2015,02,23,04,24,2.50
2015,02,23,04,25,2.50
2015,02,23,04,26,2.50
2015,02,23,04,27,2.50
2015,02,23,04,28,2.50
2015,02,23,04,29,2.50
2015,02,23,04,30,2.50
2015,02,23,04,31,2.50
2015,02,23,04,32,2.50
2015,02,23,04,33,2.50
2015,02,23,04,34,2.50
2015,02,23,04,35,2.50
2015,02,23,04,36,2.40
2015,02,23,04,37,2.40
2015,02,23,04,38,2.40
2015,02,23,04,39,2.40
2015,02,23,04,40,2.40
2015,02,23,04,41,2.50
2015,02,23,04,42,2.50
2015,02,23,04,43,2.50
2015,02,23,04,44,2.50
2015,02,23,04,45,2.60
2015,02,23,04,46,2.60
2015,02,23,04,47,2.60
2015,02,23,04,48,2.70
2015,02,23,04,49,2.70
2015,02,23,04,50,2.70
2015,02,23,04,51,2.70
2015,02,23,04,52,2.70
2015,02,23,04,53,2.80
2015,02,23,04,54,2.80
2015,02,23,04,55,2.80
2015,02,23,04,56,2.80
2015,02,23,04,57,2.80
2015,02,23,04,58,2.80
2015,02,23,04,59,2.80
2015,02,23,05,00,2.80
2015,02,23,05,01,2.90
2015,02,23,05,02,2.90
2015,02,23,05,03,2.90
2015,02,23,05,04,2.90
2015,02,23,05,05,2.90
2015,02,23,05,06,3.00
2015,02,23,05,07,3.00
2015,02,23,05,08,3.10
2015,02,23,05,09,3.10
2015,02,23,05,10,3.10
2015,02,23,05,11,3.20
2015,02,23,05,12,3.20
2015,02,23,05,13,3.20
2015,02,23,05,14,3.30
2015,02,23,05,15,3.30
2015,02,23,05,16,3.30
2015,02,23,05,17,3.30
2015,02,23,05,18,3.30
2015,02,23,05,19,3.30
2015,02,23,05,20,3.30
2015,02,23,05,21,3.40
2015,02,23,05,22,3.40
2015,02,23,05,23,3.40
2015,02,23,05,24,3.40
2015,02,23,05,25,3.40
2015,02,23,05,26,3.40
2015,02,23,05,27,3.40
2015,02,23,05,28,3.30
2015,02,23,05,29,3.30
2015,02,23,05,30,3.30
2015,02,23,05,31,3.30
2015,02,23,05,32,3.20
2015,02,23,05,33,3.20
2015,02,23,05,34,3.20
2015,02,23,05,35,3.20
2015,02,23,05,36,3.10
2015,02,23,05,37,3.10
2015,02,23,05,38,3.10
2015,02,23,05,39,3.10
2015,02,23,05,40,3.00
2015,02,23,05,41,3.00
2015,02,23,05,42,3.00
2015,02,23,05,43,2.90
2015,02,23,05,44,2.90
2015,02,23,05,45,2.90
2015,02,23,05,46,2.90
2015,02,23,05,47,2.90
2015,02,23,05,48,2.80
2015,02,23,05,49,2.80
2015,02,23,05,50,2.80
2015,02,23,05,51,2.70
2015,02,23,05,52,2.70
2015,02,23,05,53,2.60
2015,02,23,05,54,2.60
2015,02,23,05,55,2.50
2015,02,23,05,56,2.50
2015,02,23,05,57,2.40
2015,02,23,05,58,2.40
2015,02,23,05,59,2.30
2015,02,23,06,00,2.30
2015,02,23,06,01,2.30
2015,02,23,06,02,2.30
2015,02,23,06,03,2.20
2015,02,23,06,04,2.20
2015,02,23,06,05,2.20
2015,02,23,06,06,2.20
2015,02,23,06,07,2.10
2015,02,23,06,08,2.10
2015,02,23,06,09,2.10
2015,02,23,06,10,2.10
2015,02,23,06,11,2.10
2015,02,23,06,12,2.00
2015,02,23,06,13,2.00
2015,02,23,06,14,2.00
2015,02,23,06,15,1.90
2015,02,23,06,16,1.90
2015,02,23,06,17,1.90
2015,02,23,06,18,1.90
2015,02,23,06,19,1.90
2015,02,23,06,20,1.90
2015,02,23,06,21,1.80
2015,02,23,06,22,1.80
2015,02,23,06,23,1.80
2015,02,23,06,24,1.80
2015,02,23,06,25,1.80
2015,02,23,06,26,1.80
2015,02,23,06,27,1.80
2015,02,23,06,28,1.80
2015,02,23,06,29,1.80
2015,02,23,06,30,1.70
2015,02,23,06,31,1.70
2015,02,23,06,32,1.70
2015,02,23,06,33,1.70
2015,02,23,06,34,1.70
2015,02,23,06,35,1.70
2015,02,23,06,36,1.70
2015,02,23,06,37,1.70
2015,02,23,06,38,1.70
2015,02,23,06,39,1.70
2015,02,23,06,40,1.70
2015,02,23,06,41,1.70
2015,02,23,06,42,1.70
2015,02,23,06,43,1.70
2015,02,23,06,44,1.70
2015,02,23,06,45,1.70
2015,02,23,06,46,1.70
2015,02,23,06,47,1.60
2015,02,23,06,48,1.60
2015,02,23,06,49,1.60
2015,02,23,06,50,1.60
2015,02,23,06,51,1.60
2015,02,23,06,52,1.60
2015,02,23,06,53,1.60
2015,02,23,06,54,1.60
2015,02,23,06,55,1.60
2015,02,23,06,56,1.60
2015,02,23,06,57,1.50
2015,02,23,06,58,1.50
2015,02,23,06,59,1.50
2015,02,23,07,00,1.50
2015,02,23,07,01,1.50
2015,02,23,07,02,1.50
2015,02,23,07,03,1.50
2015,02,23,07,04,1.40
2015,02,23,07,05,1.40
2015,02,23,07,06,1.40
2015,02,23,07,07,1.40
2015,02,23,07,08,1.50
2015,02,23,07,09,1.50
2015,02,23,07,10,1.50
2015,02,23,07,11,1.50
2015,02,23,07,12,1.50
2015,02,23,07,13,1.50
2015,02,23,07,14,1.60
2015,02,23,07,15,1.60
2015,02,23,07,16,1.60
2015,02,23,07,17,1.60
2015,02,23,07,18,1.60
2015,02,23,07,19,1.60
2015,02,23,07,20,1.60
2015,02,23,07,21,1.60
2015,02,23,07,22,1.60
2015,02,23,07,23,1.60
2015,02,23,07,24,1.60
2015,02,23,07,25,1.60
2015,02,23,07,26,1.60
2015,02,23,07,27,1.60
2015,02,23,07,28,1.60
2015,02,23,07,29,1.60
2015,02,23,07,30,1.60
2015,02,23,07,31,1.60
2015,02,23,07,32,1.60
2015,02,23,07,33,1.60
2015,02,23,07,34,1.60
2015,02,23,07,35,1.60
2015,02,23,07,36,1.60
2015,02,23,07,37,1.60
2015,02,23,07,38,1.60
2015,02,23,07,39,1.60
2015,02,23,07,40,1.60
2015,02,23,07,41,1.60
2015,02,23,07,42,1.60
2015,02,23,07,43,1.60
2015,02,23,07,44,1.60
2015,02,23,07,45,1.60
2015,02,23,07,46,1.70
2015,02,23,07,47,1.70
2015,02,23,07,48,1.70
2015,02,23,07,49,1.70
2015,02,23,07,50,1.70
2015,02,23,07,51,1.70
2015,02,23,07,52,1.70
2015,02,23,07,53,1.70
2015,02,23,07,54,1.70
2015,02,23,07,55,1.70
2015,02,23,07,56,1.70
2015,02,23,07,57,1.80
2015,02,23,07,58,1.80
2015,02,23,07,59,1.80
2015,02,23,08,00,1.80
2015,02,23,08,01,1.80
2015,02,23,08,02,1.80
2015,02,23,08,03,1.80
2015,02,23,08,04,1.80
2015,02,23,08,05,1.90
2015,02,23,08,06,1.90
2015,02,23,08,07,1.90
2015,02,23,08,08,1.90
2015,02,23,08,09,1.90
2015,02,23,08,10,1.90
2015,02,23,08,11,1.90
2015,02,23,08,12,1.90
2015,02,23,08,13,1.90
2015,02,23,08,14,2.00
2015,02,23,08,15,2.00
2015,02,23,08,16,2.00
2015,02,23,08,17,2.00
2015,02,23,08,18,2.00
2015,02,23,08,19,2.00
2015,02,23,08,20,2.00
2015,02,23,08,21,2.10
2015,02,23,08,22,2.10
2015,02,23,08,23,2.10
2015,02,23,08,24,2.10
2015,02,23,08,25,2.10
2015,02,23,08,26,2.10
2015,02,23,08,27,2.20
2015,02,23,08,28,2.20
2015,02,23,08,29,2.20
2015,02,23,08,30,2.20
2015,02,23,08,31,2.30
2015,02,23,08,32,2.30
2015,02,23,08,33,2.30
2015,02,23,08,34,2.40
2015,02,23,08,35,2.40
2015,02,23,08,36,2.40
2015,02,23,08,37,2.50
2015,02,23,08,38,2.50
2015,02,23,08,39,2.50
2015,02,23,08,40,2.60
2015,02,23,08,41,2.60
2015,02,23,08,42,2.70
2015,02,23,08,43,2.70
2015,02,23,08,44,2.70
2015,02,23,08,45,2.80
2015,02,23,08,46,2.80
2015,02,23,08,47,2.90
2015,02,23,08,48,3.00
2015,02,23,08,49,3.00
2015,02,23,08,50,3.10
2015,02,23,08,51,3.10
2015,02,23,08,52,3.20
2015,02,23,08,53,3.20
2015,02,23,08,54,3.30
2015,02,23,08,55,3.30
2015,02,23,08,56,3.40
2015,02,23,08,57,3.50
2015,02,23,08,58,3.50
2015,02,23,08,59,3.60
2015,02,23,09,00,3.60
2015,02,23,09,01,3.70
2015,02,23,09,02,3.70
2015,02,23,09,03,3.80
2015,02,23,09,04,3.80
2015,02,23,09,05,3.80
2015,02,23,09,06,3.90
2015,02,23,09,07,3.90
2015,02,23,09,08,4.00
2015,02,23,09,09,4.00
2015,02,23,09,10,4.10
2015,02,23,09,11,4.10
2015,02,23,09,12,4.10
2015,02,23,09,13,4.20
2015,02,23,09,14,4.20
2015,02,23,09,15,4.20
2015,02,23,09,16,4.30
2015,02,23,09,17,4.30
2015,02,23,09,18,4.40
2015,02,23,09,19,4.40
2015,02,23,09,20,4.50
2015,02,23,09,21,4.60
2015,02,23,09,22,4.60
2015,02,23,09,23,4.60
2015,02,23,09,24,4.70
2015,02,23,09,25,4.70
2015,02,23,09,26,4.70
2015,02,23,09,27,4.80
2015,02,23,09,28,4.80
2015,02,23,09,29,4.90
2015,02,23,09,30,5.00
2015,02,23,09,31,5.00
2015,02,23,09,32,5.10
2015,02,23,09,33,5.20
2015,02,23,09,34,5.30
2015,02,23,09,35,5.40
2015,02,23,09,36,5.50
2015,02,23,09,37,5.60
2015,02,23,09,38,5.60
2015,02,23,09,39,5.70
2015,02,23,09,40,5.80
2015,02,23,09,41,5.90
2015,02,23,09,42,6.00
2015,02,23,09,43,6.10
2015,02,23,09,44,6.20
2015,02,23,09,45,6.30
2015,02,23,09,46,6.40
2015,02,23,09,47,6.50
2015,02,23,09,48,6.50
2015,02,23,09,49,6.60
2015,02,23,09,50,6.60
2015,02,23,09,51,6.70
2015,02,23,09,52,6.70
2015,02,23,09,53,6.70
2015,02,23,09,54,6.80
2015,02,23,09,55,6.80
2015,02,23,09,56,6.80
2015,02,23,09,57,6.80
2015,02,23,09,58,6.90
2015,02,23,09,59,7.00
2015,02,23,10,00,7.00
2015,02,23,10,01,7.10
2015,02,23,10,02,7.10
2015,02,23,10,03,7.20
2015,02,23,10,04,7.20
2015,02,23,10,05,7.30
2015,02,23,10,06,7.40
2015,02,23,10,07,7.50
2015,02,23,10,08,7.50
2015,02,23,10,09,7.60
2015,02,23,10,10,7.70
2015,02,23,10,11,7.70
2015,02,23,10,12,7.70
2015,02,23,10,13,7.80
2015,02,23,10,14,7.80
2015,02,23,10,15,7.80
2015,02,23,10,16,7.90
2015,02,23,10,17,7.80
2015,02,23,10,18,7.80
2015,02,23,10,19,7.80
2015,02,23,10,20,7.70
2015,02,23,10,21,7.70
2015,02,23,10,22,7.70
2015,02,23,10,23,7.70
2015,02,23,10,24,7.60
2015,02,23,10,25,7.60
2015,02,23,10,26,7.60
2015,02,23,10,27,7.50
2015,02,23,10,28,7.50
2015,02,23,10,29,7.50
2015,02,23,10,30,7.50
2015,02,23,10,31,7.40
2015,02,23,10,32,7.40
2015,02,23,10,33,7.40
2015,02,23,10,34,7.40
2015,02,23,10,35,7.40
2015,02,23,10,36,7.40
2015,02,23,10,37,7.40
2015,02,23,10,38,7.40
2015,02,23,10,39,7.40
2015,02,23,10,40,7.40
2015,02,23,10,41,7.30
2015,02,23,10,42,7.30
2015,02,23,10,43,7.30
2015,02,23,10,44,7.40
2015,02,23,10,45,7.40
2015,02,23,10,46,7.40
2015,02,23,10,47,7.40
2015,02,23,10,48,7.40
2015,02,23,10,49,7.50
2015,02,23,10,50,7.50
2015,02,23,10,51,7.50
2015,02,23,10,52,7.50
2015,02,23,10,53,7.50
2015,02,23,10,54,7.50
2015,02,23,10,55,7.50
2015,02,23,10,56,7.40
2015,02,23,10,57,7.40
2015,02,23,10,58,7.40
2015,02,23,10,59,7.50
2015,02,23,11,00,7.50
2015,02,23,11,01,7.50
2015,02,23,11,02,7.50
2015,02,23,11,03,7.60
2015,02,23,11,04,7.60
2015,02,23,11,05,7.60
2015,02,23,11,06,7.70
2015,02,23,11,07,7.70
2015,02,23,11,08,7.70
2015,02,23,11,09,7.70
2015,02,23,11,10,7.70
2015,02,23,11,11,7.70
2015,02,23,11,12,7.70
2015,02,23,11,13,7.70
2015,02,23,11,14,7.70
2015,02,23,11,15,7.80
2015,02,23,11,16,7.80
2015,02,23,11,17,7.80
2015,02,23,11,18,7.80
2015,02,23,11,19,7.80
2015,02,23,11,20,7.80
2015,02,23,11,21,7.80
2015,02,23,11,22,7.80
2015,02,23,11,23,7.80
2015,02,23,11,24,7.80
2015,02,23,11,25,7.80
2015,02,23,11,26,7.80
2015,02,23,11,27,7.90
2015,02,23,11,28,7.90
2015,02,23,11,29,7.90
2015,02,23,11,30,8.00
2015,02,23,11,31,8.00
2015,02,23,11,32,8.10
2015,02,23,11,33,8.20
2015,02,23,11,34,8.20
2015,02,23,11,35,8.20
2015,02,23,11,36,8.20
2015,02,23,11,37,8.30
2015,02,23,11,38,8.30
2015,02,23,11,39,8.30
2015,02,23,11,40,8.30
2015,02,23,11,41,8.30
2015,02,23,11,42,8.30
2015,02,23,11,43,8.30
2015,02,23,11,44,8.30
2015,02,23,11,45,8.30
2015,02,23,11,46,8.30
2015,02,23,11,47,8.30
2015,02,23,11,48,8.30
2015,02,23,11,49,8.30
2015,02,23,11,50,8.30
2015,02,23,11,51,8.30
2015,02,23,11,52,8.30
2015,02,23,11,53,8.30
2015,02,23,11,54,8.30
2015,02,23,11,55,8.30
2015,02,23,11,56,8.30
2015,02,23,11,57,8.30
2015,02,23,11,58,8.30
2015,02,23,11,59,8.30
2015,02,23,12,00,8.30
2015,02,23,12,01,8.30
2015,02,23,12,02,8.30
2015,02,23,12,03,8.30
2015,02,23,12,04,8.30
2015,02,23,12,05,8.30
2015,02,23,12,06,8.30
2015,02,23,12,07,8.30
2015,02,23,12,08,8.30
2015,02,23,12,09,8.30
2015,02,23,12,10,8.30
2015,02,23,12,11,8.20
2015,02,23,12,12,8.20
2015,02,23,12,13,8.20
2015,02,23,12,14,8.20
2015,02,23,12,15,8.20
2015,02,23,12,16,8.20
2015,02,23,12,17,8.20
2015,02,23,12,18,8.20
2015,02,23,12,19,8.20
2015,02,23,12,20,8.20
2015,02,23,12,21,8.20
2015,02,23,12,22,8.20
2015,02,23,12,23,8.30
2015,02,23,12,24,8.30
2015,02,23,12,25,8.30
2015,02,23,12,26,8.30
2015,02,23,12,27,8.30
2015,02,23,12,28,8.40
2015,02,23,12,29,8.40
2015,02,23,12,30,8.40
2015,02,23,12,31,8.50
2015,02,23,12,32,8.50
2015,02,23,12,33,8.60
2015,02,23,12,34,8.60
2015,02,23,12,35,8.60
2015,02,23,12,36,8.70
2015,02,23,12,37,8.70
2015,02,23,12,38,8.80
2015,02,23,12,39,8.80
2015,02,23,12,40,8.80
2015,02,23,12,41,8.80
2015,02,23,12,42,8.90
2015,02,23,12,43,9.00
2015,02,23,12,44,9.00
2015,02,23,12,45,9.10
2015,02,23,12,46,9.10
2015,02,23,12,47,9.10
2015,02,23,12,48,9.10
2015,02,23,12,49,9.10
2015,02,23,12,50,9.20
2015,02,23,12,51,9.10
2015,02,23,12,52,9.10
2015,02,23,12,53,9.10
2015,02,23,12,54,9.10
2015,02,23,12,55,9.10
2015,02,23,12,56,9.10
2015,02,23,12,57,9.10
2015,02,23,12,58,9.10
2015,02,23,12,59,9.10
2015,02,23,13,00,9.10
2015,02,23,13,01,9.10
2015,02,23,13,02,9.10
2015,02,23,13,03,9.10
2015,02,23,13,04,9.10
2015,02,23,13,05,9.10
2015,02,23,13,06,9.10
2015,02,23,13,07,9.10
2015,02,23,13,08,9.10
2015,02,23,13,09,9.10
2015,02,23,13,10,9.10
2015,02,23,13,11,9.10
2015,02,23,13,12,9.20
2015,02,23,13,13,9.30
2015,02,23,13,14,9.30
2015,02,23,13,15,9.40
2015,02,23,13,16,9.40
2015,02,23,13,17,9.50
2015,02,23,13,18,9.50
2015,02,23,13,19,9.60
2015,02,23,13,20,9.60
2015,02,23,13,21,9.60
2015,02,23,13,22,9.60
2015,02,23,13,23,9.60
2015,02,23,13,24,9.70
2015,02,23,13,25,9.70
2015,02,23,13,26,9.70
2015,02,23,13,27,9.70
2015,02,23,13,28,9.70
2015,02,23,13,29,9.80
2015,02,23,13,30,9.80
2015,02,23,13,31,9.80
2015,02,23,13,32,9.90
2015,02,23,13,33,9.90
2015,02,23,13,34,9.90
2015,02,23,13,35,9.90
2015,02,23,13,36,9.90
2015,02,23,13,37,9.90
2015,02,23,13,38,10.00
2015,02,23,13,39,10.00
2015,02,23,13,40,10.10
2015,02,23,13,41,10.10
2015,02,23,13,42,10.20
2015,02,23,13,43,10.20
2015,02,23,13,44,10.20
2015,02,23,13,45,10.30
2015,02,23,13,46,10.30
2015,02,23,13,47,10.30
2015,02,23,13,48,10.40
2015,02,23,13,49,10.50
2015,02,23,13,50,10.50
2015,02,23,13,51,10.60
2015,02,23,13,52,10.60
2015,02,23,13,53,10.70
2015,02,23,13,54,10.70
2015,02,23,13,55,10.70
2015,02,23,13,56,10.80
2015,02,23,13,57,10.80
2015,02,23,13,58,10.80
2015,02,23,13,59,10.80
2015,02,23,14,00,10.80
2015,02,23,14,01,10.80
2015,02,23,14,02,10.90
2015,02,23,14,03,10.90
2015,02,23,14,04,10.90
2015,02,23,14,05,10.90
2015,02,23,14,06,10.90
2015,02,23,14,07,10.90
2015,02,23,14,08,10.80
2015,02,23,14,09,10.80
2015,02,23,14,10,10.80
2015,02,23,14,11,10.70
2015,02,23,14,12,10.70
2015,02,23,14,13,10.70
2015,02,23,14,14,10.60
2015,02,23,14,15,10.60
2015,02,23,14,16,10.60
2015,02,23,14,17,10.60
2015,02,23,14,18,10.60
2015,02,23,14,19,10.60
2015,02,23,14,20,10.50
2015,02,23,14,21,10.50
2015,02,23,14,22,10.60
2015,02,23,14,23,10.60
2015,02,23,14,24,10.60
2015,02,23,14,25,10.60
2015,02,23,14,26,10.60
2015,02,23,14,27,10.60
2015,02,23,14,28,10.60
2015,02,23,14,29,10.50
2015,02,23,14,30,10.50
2015,02,23,14,31,10.50
2015,02,23,14,32,10.50
2015,02,23,14,33,10.40
2015,02,23,14,34,10.40
2015,02,23,14,35,10.40
2015,02,23,14,36,10.40
2015,02,23,14,37,10.40
2015,02,23,14,38,10.40
2015,02,23,14,39,10.40
2015,02,23,14,40,10.30
2015,02,23,14,41,10.30
2015,02,23,14,42,10.30
2015,02,23,14,43,10.30
2015,02,23,14,44,10.30
2015,02,23,14,45,10.20
2015,02,23,14,46,10.20
2015,02,23,14,47,10.20
2015,02,23,14,48,10.10
2015,02,23,14,49,10.10
2015,02,23,14,50,10.10
2015,02,23,14,51,10.10
2015,02,23,14,52,10.10
2015,02,23,14,53,10.10
2015,02,23,14,54,10.10
2015,02,23,14,55,10.10
2015,02,23,14,56,10.10
2015,02,23,14,57,10.10
2015,02,23,14,58,10.10
2015,02,23,14,59,10.10
2015,02,23,15,00,10.10
2015,02,23,15,01,10.10
2015,02,23,15,02,10.10
2015,02,23,15,03,10.10
2015,02,23,15,04,10.20
2015,02,23,15,05,10.20
2015,02,23,15,06,10.20
2015,02,23,15,07,10.20
2015,02,23,15,08,10.20
2015,02,23,15,09,10.10
2015,02,23,15,10,10.10
2015,02,23,15,11,10.10
2015,02,23,15,12,10.10
2015,02,23,15,13,10.00
2015,02,23,15,14,10.00
2015,02,23,15,15,9.90
2015,02,23,15,16,9.90
2015,02,23,15,17,9.90
2015,02,23,15,18,9.90
2015,02,23,15,19,9.90
2015,02,23,15,20,9.90
2015,02,23,15,21,9.90
2015,02,23,15,22,9.90
2015,02,23,15,23,9.90
2015,02,23,15,24,9.90
2015,02,23,15,25,9.90
2015,02,23,15,26,9.90
2015,02,23,15,27,9.90
2015,02,23,15,28,9.90
2015,02,23,15,29,9.90
2015,02,23,15,30,9.90
2015,02,23,15,31,9.90
2015,02,23,15,32,9.90
2015,02,23,15,33,9.90
2015,02,23,15,34,9.90
2015,02,23,15,35,9.80
2015,02,23,15,36,9.80
2015,02,23,15,37,9.80
2015,02,23,15,38,9.80
2015,02,23,15,39,9.80
2015,02,23,15,40,9.80
2015,02,23,15,41,9.70
2015,02,23,15,42,9.80
2015,02,23,15,43,9.80
2015,02,23,15,44,9.80
2015,02,23,15,45,9.80
2015,02,23,15,46,9.80
2015,02,23,15,47,9.80
2015,02,23,15,48,9.80
2015,02,23,15,49,9.70
2015,02,23,15,50,9.70
2015,02,23,15,51,9.70
2015,02,23,15,52,9.70
2015,02,23,15,53,9.70
2015,02,23,15,54,9.70
2015,02,23,15,55,9.70
2015,02,23,15,56,9.70
2015,02,23,15,57,9.60
2015,02,23,15,58,9.60
2015,02,23,15,59,9.60
2015,02,23,16,00,9.60
2015,02,23,16,01,9.50
2015,02,23,16,02,9.50
2015,02,23,16,03,9.50
2015,02,23,16,04,9.50
2015,02,23,16,05,9.40
2015,02,23,16,06,9.40
2015,02,23,16,07,9.40
2015,02,23,16,08,9.40
2015,02,23,16,09,9.40
2015,02,23,16,10,9.30
2015,02,23,16,11,9.30
2015,02,23,16,12,9.30
2015,02,23,16,13,9.30
2015,02,23,16,14,9.30
2015,02,23,16,15,9.30
2015,02,23,16,16,9.30
2015,02,23,16,17,9.20
2015,02,23,16,18,9.20
2015,02,23,16,19,9.20
2015,02,23,16,20,9.20
2015,02,23,16,21,9.20
2015,02,23,16,22,9.20
2015,02,23,16,23,9.20
2015,02,23,16,24,9.20
2015,02,23,16,25,9.20
2015,02,23,16,26,9.20
2015,02,23,16,27,9.10
2015,02,23,16,28,9.10
2015,02,23,16,29,9.10
2015,02,23,16,30,9.10
2015,02,23,16,31,9.10
2015,02,23,16,32,9.10
2015,02,23,16,33,9.00
2015,02,23,16,34,9.00
2015,02,23,16,35,9.00
2015,02,23,16,36,9.00
2015,02,23,16,37,8.90
2015,02,23,16,38,8.90
2015,02,23,16,39,8.90
2015,02,23,16,40,8.90
2015,02,23,16,41,8.90
2015,02,23,16,42,8.90
2015,02,23,16,43,8.80
2015,02,23,16,44,8.80
2015,02,23,16,45,8.80
2015,02,23,16,46,8.80
2015,02,23,16,47,8.80
2015,02,23,16,48,8.80
2015,02,23,16,49,8.80
2015,02,23,16,50,8.80
2015,02,23,16,51,8.80
2015,02,23,16,52,8.70
2015,02,23,16,53,8.70
2015,02,23,16,54,8.70
2015,02,23,16,55,8.70
2015,02,23,16,56,8.70
2015,02,23,16,57,8.70
2015,02,23,16,58,8.60
2015,02,23,16,59,8.60
2015,02,23,17,00,8.60
2015,02,23,17,01,8.60
2015,02,23,17,02,8.60
2015,02,23,17,03,8.50
2015,02,23,17,04,8.50
2015,02,23,17,05,8.50
2015,02,23,17,06,8.50
2015,02,23,17,07,8.40
2015,02,23,17,08,8.40
2015,02,23,17,09,8.40
2015,02,23,17,10,8.40
2015,02,23,17,11,8.40
2015,02,23,17,12,8.40
2015,02,23,17,13,8.40
2015,02,23,17,14,8.30
2015,02,23,17,15,8.30
2015,02,23,17,16,8.30
2015,02,23,17,17,8.30
2015,02,23,17,18,8.30
2015,02,23,17,19,8.20
2015,02,23,17,20,8.20
2015,02,23,17,21,8.20
2015,02,23,17,22,8.20
2015,02,23,17,23,8.20
2015,02,23,17,24,8.10
2015,02,23,17,25,8.10
2015,02,23,17,26,8.10
2015,02,23,17,27,8.10
2015,02,23,17,28,8.00
2015,02,23,17,29,8.00
2015,02,23,17,30,8.00
2015,02,23,17,31,7.90
2015,02,23,17,32,7.90
2015,02,23,17,33,7.90
2015,02,23,17,34,7.80
2015,02,23,17,35,7.80
2015,02,23,17,36,7.80
2015,02,23,17,37,7.80
2015,02,23,17,38,7.70
2015,02,23,17,39,7.70
2015,02,23,17,40,7.70
2015,02,23,17,41,7.70
2015,02,23,17,42,7.70
2015,02,23,17,43,7.60
2015,02,23,17,44,7.60
2015,02,23,17,45,7.60
2015,02,23,17,46,7.60
2015,02,23,17,47,7.50
2015,02,23,17,48,7.50
2015,02,23,17,49,7.50
2015,02,23,17,50,7.50
2015,02,23,17,51,7.40
2015,02,23,17,52,7.40
2015,02,23,17,53,7.40
2015,02,23,17,54,7.40
2015,02,23,17,55,7.40
2015,02,23,17,56,7.30
2015,02,23,17,57,7.30
2015,02,23,17,58,7.30
2015,02,23,17,59,7.30
2015,02,23,18,00,7.30
2015,02,23,18,01,7.30
2015,02,23,18,02,7.20